STARLINK-34147, 63965

Orbit data source: Space-Track

STARLINK-34147, 63965 is a payload satellite owned by SpaceX/Seattle (US) in LEO that was launched on Tue, 13 May 2025 UTC via an FALCON 9 launch vehicle from the Air Force Eastern Test Range (AFETR). Payload-class satellites include a variety of spacecraft equipped with specific instruments for various scientific and technological missions. These include communications satellites like Starlink; space stations such as the ISS; scientific satellites like the Hubble; Earth observation satellites from companies like Planet Labs, Umbra, and HawkEye 360; GPS; miniature CubeSats for education and research; and military/defense satellites.

Loading next visibility...
Identifier
63965, 2025-099P
Orbit
LEO
Country
Flag of USUS
Related business
Manufacturer
SpaceX/Seattle
Mission
Operational Commercial Communications
Bus & Motor
STARLINK V2MO, Unknown motor
Mass
575 kg wet, ~530 kg dry
Launch date (UTC)
2025-05-13 (7 months ago)
Launch vehicle
FALCON 9
Launch site
Air Force Eastern Test Range (AFETR)
Object type
Payload
Rocket body
Debris
Shape & HBR
Box + 2 Pan, 17.7 m
Radar Cross Section
36.964 m², Large (>1 m²)

Expand to show TLE details & history
Last TLE update: 18 hours ago

TLE from 18 hours ago
0 STARLINK-34147
1 63965U 25099P   25346.62877936  .00042703  00000-0  15534-2 0  9998
2 63965  43.0009 307.7069 0001219 286.3413  73.7305 15.27557681 34020
Epoch: 2025-12-12T15:05Z
TLE epoch observation values (Epoch: 2025-12-12T15:05:26.536Z)
Latitude
Longitude
-0.22133°
Altitude
482.657 km
Speed
7.626 km/s
True Right ascension
20h 30m 49s
True Declination
0° 00' 00"
Sunlit
Object was in daylight at epoch
Visualization orbit readout
Latitude
Unknown
Longitude
Unknown
Altitude
Unknown
Speed
Unknown
Apparent Right ascension
Unknown
Apparent Declination
Unknown
Sunlit
N/A
Visualization observer readout
Local Sidereal Time
07:26:32
Azimuth
Unknown
Elevation
Unknown
Doppler factor
Unknown
Orbital elements
Apogee altitude
485.898 km
Perigee altitude
484.224 km
Semi-major axis
6,863.198 km
Eccentricity
0.00012
Inclination
43.0009°
RAAN
307.7069°
Arg. of periapsis
286.3413°
True anomaly
73.74391°
Mean anomaly
73.7305°
Eccentric anomaly
73.7372°
Mean motion
3.81727 °/min
Orbital period
94.31 mins
BSTAR
0.0015534
Loading maneuver chart data...
Computing Atmospheric mass density...
Loading historical data...
Loading historical data...
Loading historical data...
Loading historical data...
Loading historical data...
Loading historical data...
Loading historical data...

Documentation

Showing up to 5 results
|